Choose a state:
Most recent flow and stage for Montana
(Stations highlighted in red are currently above flood stage)
USGS
station
ID
USGS station name NWS
flood
stage
(ft)
Most recent
stage
(ft)
Most recent
flow
(cfs)
Historical
peaks
(cfs)
Most recent
local
date/time
NWS
station
ID
05014300 Swiftcurrent Cr ab Swiftcurrent Lk at Many Glacier   0.90 Ssn 2,000 2022-01-25 05:30:00 SCLM8
05014500 Swiftcurrent Creek at Many Glacier MT   1.50 19.3 6,700 2022-01-25 05:30:00 MGGM8
05015500 Lake Sherburne at Sherburne MT   4778.78

 

  2022-01-25 05:00:00 SBUM8
05017500 St. Mary River near Babb MT   2.05 196 16,500 2022-01-25 05:15:00 SMYM8
05018000 St. Mary Canal at intake near Babb MT   1.62 Ssn   2022-01-25 05:15:00 SCIM8
05018500 St. Mary Canal at St. Mary Crossing near Babb MT   7.13 Ssn 2022-01-25 05:15:00 SCCM8
05020500 St. Mary River at International Boundary 7.5 3.81 Ice 40,000 2022-01-25 05:10:00 SMBM8
06006000 Red Rock Cr ab Lakes, nr Lakeview, MT   2.41 Ssn 293 2022-01-25 05:30:00 RRLM8
06012500 Red Rock R bl Lima Reservoir nr Monida MT   0.08 Ssn 2,500 2021-12-19 14:15:00 LRRM8
06016000 Beaverhead River at Barretts MT   0.61 Ssn 3,720 2022-01-25 05:15:00 BARM8
06017000 Beaverhead River at Dillon MT   3.34 Ssn 1,740 2022-01-25 05:15:00 DILM8
06018500 Beaverhead River near Twin Bridges MT 7 4.11 Ice 3,130 2022-01-25 05:15:00 TWNM8
06019500 Ruby River above reservoir near Alder, MT   2.75 Ice 3,810 2022-01-25 05:45:00 RRRM8
06020600 Ruby River below reservoir near Alder, MT   2.20 31.7 3,010 2022-01-25 05:45:00 RRBM8
06023000 Ruby River near Twin Bridges MT   2.29 Ssn 1,500 2022-01-25 05:45:00 RTBM8
06023100 Beaverhead River at Twin Bridges, MT   2.73 Ssn 5.52 2022-01-25 05:30:00 TWBM8
06024450 Big Hole River bl Big Lake Cr at Wisdom MT   9.65 Ssn 4,550 2022-01-10 11:30:00 BGKM8
06024540 Big Hole River bl Mudd Cr nr Wisdom MT   3.07 Ssn 7,300 2022-01-25 05:30:00 BHDM8
06024580 Big Hole River near Wise River MT  

 

107 9,130 2021-08-12 04:45:00 WSVM8
06025250 Big Hole River at Maiden Rock nr Divide MT   2.81 Ssn 10,600 2022-01-25 05:45:00 MRDM8
06025500 Big Hole River near Melrose MT 6 1.80 Ice 23,000 2022-01-25 05:15:00 MLRM8
06026210 Big Hole River near Glen MT   3.44 Ssn 11,900 2022-01-25 05:30:00 GNLM8
06026420 Big Hole R bl Hamilton Ditch nr Twin Bridges, MT   1.700 Ssn 11,200 2022-01-25 05:30:00 THDM8
06026500 Jefferson River near Twin Bridges MT 10 5.38 Ice 16,500 2022-01-25 05:15:00 TWIM8
06027600 Jefferson River at Parsons Bdg nr Silver Star, MT   3.73 Ssn 13,600 2021-11-19 21:30:00 PBRM8
06033000 Boulder River near Boulder MT   5.03 28.1 7,000 2022-01-25 05:15:00 BLDM8
06035000 Willow Creek near Harrison MT   2.74 Ssn 813 2022-01-25 05:15:00 WCHM8
06036650 Jefferson River near Three Forks MT 8 5.08 Ice 17,400 2022-01-25 05:00:00 TFKM8
06036805 Firehole River at Old Faithful, YNP   2.38 40.2 477 2022-01-25 05:00:00  
06036905 Firehole River near West Yellowstone MT   2.95 227 2,050 2022-01-25 05:00:00  
06036940 Tantalus Creek at Norris Junction, YNP   1.51 4.88 60.0 2022-01-24 12:30:00  
06037100 Gibbon River at Madison Jct, YNP   4.52 70.7 1,010 2022-01-25 05:00:00 GMJW4
06037500 Madison River near West Yellowstone, MT   1.71 349 2,820 2022-01-25 05:30:00 MDSM8
06038500 Madison River bl Hebgen Lake nr Grayling MT   1.47 680 10,200 2022-01-25 05:45:00 HBDM8
06038800 Madison River at Kirby Ranch nr Cameron MT   1.65 762 5,030 2022-01-25 05:45:00 CMRM8
06040000 Madison River near Cameron MT   2.92 1,920 8,830 2022-01-25 05:15:00 CMNM8
06040800 Madison River ab powerplant nr McAllister MT   4.13 321 6,100 2022-01-25 05:30:00 MRPM8
06041000 Madison River bl Ennis Lake nr McAllister MT   1.86 1,180 9,550 2022-01-25 05:45:00 MADM8
06043120 Gallatin River above Deer Creek, near Big Sky, MT   4.64 175 4,890 2022-01-25 05:30:00 GBSM8
06043500 Gallatin River near Gallatin Gateway, MT 6 1.09 229 9,160 2022-01-25 05:00:00 GLGM8
06048650 E Gallatin R ab Water Reclamation Fa nr Bozeman MT   4.30 Ice 2,410 2022-01-25 05:30:00 EGBM8
06050000 Hyalite C at Hyalite R S nr Bozeman MT   2.24 Ice 956 2022-01-25 05:30:00 HCCM8
06052500 Gallatin River at Logan MT 9 4.50 Ice 9,840 2022-01-25 05:00:00 LOGM8
06054500 Missouri River at Toston MT 10.5 4.16 3,400 34,000 2022-01-25 05:00:00 TOSM8
06061500 Prickly Pear Creek near Clancy MT   0.49 Ice 2,300 2022-01-25 05:30:00 PKPM8
06062500 Tenmile Creek near Rimini MT   1.27 Ice 3,290 2022-01-25 05:45:00 RIMM8
06063000 Tenmile Creek near Helena MT 4.5 2.34 4.58 3,770 2022-01-25 05:15:00 TMHM8
06065500 Missouri River bl Hauser Dam near Helena MT   3.19 3,000 33,300 2022-01-25 05:00:00 HASM8
06066500 Missouri River bl Holter Dam nr Wolf Cr MT   2.25 2,890 34,800 2022-01-25 05:45:00 HTRM8
06071300 Little Prickly Pear Cr at Wolf Cr MT   2.96 48.5 4,500 2022-01-25 05:45:00 LPPM8
06073500 Dearborn River near Craig MT 6.5 3.34 Ice 15,400 2022-01-25 05:15:00 DBRM8
06074000 Missouri River at Cascade MT   6.39 Ice 54,200 2022-01-25 05:30:00 CASM8
06076690 Smith River near Ft Logan MT   2.91 Ice 4,600 2022-01-25 05:30:00 SFLM8
06077200 Smith River bl Eagle Cr nr Fort Logan MT   4.16 Ice 4,030 2022-01-25 05:15:00 SMHM8
06077500 Smith River near Eden MT   3.02 Ssn 12,300 2022-01-25 05:45:00 EDNM8
06078200 Missouri River near Ulm MT 13.5 4.18 Ice 35,000 2022-01-25 05:00:00 ULMM8
06078500 North Fork Sun River near Augusta MT 9 3.18 Ice 51,100 2022-01-25 05:30:00 NFSM8
06079000 South Fork Sun River near Augusta MT   3.03 Eqp 28,800 2021-12-31 11:00:00 SSNM8
06080900 Sun River bl Diversion Dam nr Augusta MT   3.88 Ice 59,700 2022-01-25 05:45:00  
06082200 Sun River bl Willow Cr nr Augusta MT   2.13 Ice 46,700 2022-01-25 05:15:00 SRVM8
06085800 Sun River at Simms MT 7.5 2.92 Ice 50,000 2022-01-25 05:30:00 SSRM8
06088500 Muddy Creek at Vaughn MT 12 2.77 Ice 7,600 2022-01-25 05:30:00 MDYM8
06089000 Sun River near Vaughn MT 6 2.26 Ice 53,500 2022-01-25 05:00:00 VAUM8
06090000 Missouri River at Great Falls MT   10.75

 

  2022-01-25 05:30:00 GFSM8
06090300 Missouri River near Great Falls MT   2.89 3,990 72,000 2022-01-25 05:45:00 GFLM8
06090500 Belt Creek near Monarch MT 6.5 2.44 Ice 11,000 2022-01-25 05:15:00 BTCM8
06090800 Missouri River at Fort Benton MT 13.5 0.03 Eqp 140,000 2022-01-21 08:30:00 FBNM8
06091700 Two Medicine River bl South Fork nr Browning MT   2.62 Ice 11,700 2022-01-25 05:15:00 TMRM8
06092020 Two Medicine River ab Badger Cr, nr Piegan, MT   2.20 Ice 2,320 2022-01-25 05:15:00  
06093200 Badger Cr bl Four Horns Canal nr Browning MT 7 4.05 Ice 20,700 2022-01-25 05:15:00 BDCM8
06094900 Birch Cr bl Heart Butte Road, nr Heart Butte, MT   1.22 Ice   2022-01-25 05:15:00  
06098120 Birch Creek at Bullhead Bridge, nr Valier, MT   4.80 Ice   2022-01-20 03:00:00  
06098800 Cut Bank Cr ab Gillam Coulee, nr Sundance, MT   4.87 Ice 1,480 2022-01-25 05:15:00  
06099000 Cut Bank Creek at Cut Bank MT   3.24 Ice 16,600 2022-01-25 05:30:00 CBKM8
06099500 Marias River near Shelby MT 9 5.78 Ice 241,000 2022-01-25 05:30:00 SHLM8
06101200 Willow Creek near Galata, MT   1.42

 

1,180 2022-01-25 05:30:00  
06101500 Marias River near Chester MT   3.48 499 10,400 2022-01-25 05:15:00 MRCM8
06102050 Marias River near Loma MT   1.90 Ssn 12,300 2022-01-25 05:00:00 LOMM8
06102500 Teton River bl South Fork nr Choteau MT 9 3.91 Ssn 54,600 2022-01-25 05:45:00 TSFM8
06108000 Teton River near Dutton MT 9 2.19 Ice 71,300 2022-01-25 05:30:00 DTTM8
06108800 Teton River at Loma MT   1.52 Ice 6,520 2022-01-25 05:30:00 LTRM8
06109500 Missouri River at Virgelle MT 17 6.57 Ice 122,000 2022-01-25 05:00:00 VRGM8
06110020 Judith River above Carr Creek near Utica MT   2.25 Ice 769 2022-01-25 05:30:00 JRUM8
06111800 Big Spring Cr at R&B Trading Post nr Lewistown MT   3.77 150 1,020 2022-01-25 05:30:00 LTPM8
06114700 Judith River nr mouth, nr Winifred MT   8.28 Ssn 15,900 2022-01-25 05:15:00 JDRM8
06115200 Missouri River near Landusky MT 27 17.13 Ice 137,000 2022-01-25 05:00:00 LDKM8
06119200 South Fork Musselshell River at Martinsdale, MT   1.53 Ice 650 2022-01-25 05:45:00  
06119600 Musselshell River nr Martinsdale, MT   1.41 Ssn 4,780 2022-01-25 05:15:00 MRMM8
06120500 Musselshell River at Harlowton MT 7 2.91 Ice 7,270 2022-01-25 05:00:00 HLWM8
06123030 Musselshell River ab Mud Cr nr Shawmut MT 8 3.04 Ssn 8,900 2022-01-25 05:30:00 SHAM8
06125600 Musselshell River ab Big Coulee Creek at Lavina MT 9.5 1.39 Ssn 5,700 2022-01-25 05:30:00 LVNM8
06126500 Musselshell River near Roundup MT 10 1.36 Ice 15,000 2022-01-25 05:00:00 RUPM8
06127500 Musselshell River at Musselshell MT 11 1.88 Ssn 16,200 2022-01-25 05:30:00 MUSM8
06130000 Flatwillow Creek near Mosby MT   4.75 0.01 19,700 2022-01-25 05:00:00 MFLM8
06130500 Musselshell River at Mosby MT 10 3.07 Ice 25,100 2022-01-25 05:45:00 MSBM8
06131200 Nelson Creek near Van Norman MT   2.11 Ice 1,750 2022-01-25 05:15:00  
06133500 N F Milk River ab St. Mary canal nr Browning MT   6.27 Ssn 3,090 2022-01-25 05:15:00 NFMM8
06135000 Milk River at Eastern Crossing of Int Bndry 9.5 2.81 Ssn 14,400 2022-01-25 05:15:00 ERNM8
06137570 Boxelder Creek near Rocky Boy, MT   3.55 Rat 1,400 2022-01-25 05:00:00  
06137575 Boxelder Creek at Box Elder, MT   8.74 Ice 12.7 2022-01-25 05:00:00  
06138580 Big Sandy Cr ab Spring Coulee, nr Laredo, MT   8.26 Ice   2022-01-20 19:00:00  
06139500 Big Sandy Creek near Havre MT 8.5 1.37 Ssn 6,000 2022-01-25 05:30:00 BSMM8
06140500 Milk River at Havre MT 10 0.47 Ice 20,000 2022-01-25 05:15:00 HVRM8
06142400 Clear Creek near Chinook MT 5.5 0.82 0.02 1,490 2021-11-01 00:45:00 CCMM8
06151500 Battle Creek near Chinook MT 10 1.06 Ssn 19,400 2022-01-25 05:30:00 BCMM8
06154100 Milk River near Harlem MT 21 1.94 57.1 19,000 2021-11-01 00:45:00 HRLM8
06154400 Peoples Creek near Hays MT   3.08 Ice 8,460 2022-01-25 05:15:00 PEOM8
06155030 Milk River near Dodson MT 23 17.98 Ssn 13,200 2022-01-25 05:15:00 DMRM8
06155500 Milk River at Malta MT 16 1.59 Ice 24,000 2022-01-25 05:15:00 MALM8
06164000 Frenchman River at international boundary 12 1.249 Ssn 22,700 2022-01-25 05:25:00 FREM8
06164510 Milk River at Juneberg Bridge nr Saco MT 20 3.25 Ice 12,400 2022-01-25 05:00:00 SACM8
06166000 Beaver Cr bl Guston Coulee nr Saco MT 11 11.56 Ssn 23,500 2022-01-25 01:00:00 GSCM8
06167500 Beaver Creek near Hinsdale MT 14 3.25 Ssn 8,210 2022-01-25 05:30:00 BCHM8
06169500 Rock Creek bl Horse Creek nr int'l boundary   2.80 Ice 5,110 2022-01-25 05:30:00 ORHM8
06172310 Milk River at Tampico MT 23 2.76 Ssn 45,000 2022-01-25 05:30:00 TMPM8
06174500 Milk River at Nashua MT 20 2.90 Ice 45,300 2022-01-25 05:00:00 NSHM8
06175100 Missouri R at W Frazer Pump Plant nr Frazer MT   6.55

 

  2022-01-25 05:00:00  
06175510 Missouri R at E Frazer Pump Plant nr Frazer MT   44.32

 

  2022-01-25 05:30:00  
06177000 Missouri River near Wolf Point MT 23 16.46 Ice 93,200 2022-01-25 05:00:00 WPTM8
06177500 Redwater River at Circle MT 11 3.60 Ice 6,960 2022-01-25 05:30:00 RRCM8
06178000 Poplar River at international boundary 6 2.44 3.36 12,700 2021-11-01 01:00:00 PPRM8
06178500 East Poplar River at international boundary 10 5.19 Bkw 4,020 2022-01-25 05:30:00 EPRM8
06181000 Poplar River near Poplar MT 16 7.83 Ice 40,000 2022-01-25 05:30:00 PLRM8
06183450 Big Muddy Creek near Antelope MT 12 2.57 Ice 3,190 2022-01-25 05:15:00 BGCM8
06185110 Big Muddy Creek nr mouth nr Culbertson MT 16 6.59 Ice 2,480 2022-01-25 05:15:00 CBMM8
06185500 Missouri River near Culbertson MT 19 7.59 Ice 104,000 2022-01-25 05:00:00 CLBM8
06186500 Yellowstone River at Yellowstone Lk Outlet YNP 9 2.44 Ice 9,950 2022-01-25 05:30:00 YLOW4
06187915 Soda Butte Cr at Park Bndry at Silver Gate   -0.80 Ice 1,430 2022-01-25 05:45:00 SBCM8
06188000 Lamar River nr Tower Ranger Station YNP 15 1.23 Ice 19,500 2022-01-25 05:15:00 TFLW4
06190540 Boiling River at Mammoth,YNP   1.05 24.4 36.0 2022-01-25 05:15:00  
06191000 Gardner River near Mammoth, YNP   1.95 87.4 2,110 2022-01-25 05:45:00 GDRM8
06191500 Yellowstone River at Corwin Springs MT 11 0.56 512 32,200 2022-01-25 05:00:00 CORM8
06192500 Yellowstone River near Livingston, MT 10 0.31 Ice 40,600 2022-01-25 05:45:00 LIVM8
06192900 Dugout Creek at mouth, nr Wilsall, MT   1.46 Rat   2022-01-25 05:15:00  
06192980 Shields River ab Smith Cr, nr Wilsall, MT   1.77 Rat   2022-01-25 05:15:00 SRCM8
06195600 Shields River nr Livingston MT 5.5 0.75 Ice 5,600 2022-01-25 05:30:00 SLDM8
06197800 East Boulder River bl Dry Fork Cr nr Mcleod, MT   1.97 Ice 1,280 2022-01-25 05:30:00 EBRM8
06200000 Boulder River at Big Timber MT 8 1.63 Ice 10,400 2022-01-25 05:45:00 BTMM8
06204050 West Rosebud Creek near Roscoe MT   0.51 24.1 1,630 2022-01-25 05:00:00 WRDM8
06204070 W Rosebud Cr at Emerald Lk Campground nr Roscoe   1.43 55.2 1,390 2022-01-25 05:30:00 WREM8
06205000 Stillwater River near Absarokee MT 7.5 1.57 Ice 12,000 2022-01-25 05:15:00 SRAM8
06207500 Clarks Fork Yellowstone River nr Belfry MT 9 1.02 Ice 14,800 2022-01-25 05:00:00 BFYM8
06208500 Clarks Fork Yellowstone River at Edgar MT 9 2.72 Ice 11,400 2022-01-25 05:30:00 EDGM8
06209500 Rock Creek near Red Lodge MT   4.56 Ice 3,110 2022-01-25 05:00:00 ROKM8
06211000 Red Lodge Cr ab Cooney Re nr Boyd MT   2.37 Ssn 4,700 2022-01-25 05:15:00 BYDM8
06211500 Willow Creek near Boyd MT   3.11 Ssn 2,110 2022-01-25 05:30:00 BOYM8
06214500 Yellowstone River at Billings MT 13.5 2.28 Ice 82,000 2022-01-25 05:00:00 BILM8
06286490 Big Horn Canal near St. Xavier MT   67.22 Ssn   2022-01-25 05:15:00  
06287000 Bighorn River near St. Xavier, MT   60.49 2,270 37,400 2022-01-25 05:15:00 STXM8
06287800 Bighorn River at bridge, at St. Xavier, MT   6.11 2,380 15,600 2022-01-25 05:30:00 SXVM8
06288400 Bighorn River at Two Leggins Bridge, near Hardin   9.99 2,520 16,300 2022-01-25 05:30:00 TLBM8
06289000 Little Bighorn River at State Line nr Wyola MT   2.01 62.9 2,730 2022-01-25 05:00:00 LBSM8
06294000 Little Bighorn River near Hardin MT 8 3.47 Ice 22,600 2022-01-25 05:15:00 HRDM8
06294500 Bighorn River ab Tullock Cr nr Bighorn MT   1.73 Ice 33,200 2022-01-25 05:00:00 BGHM8
06295000 Yellowstone River at Forsyth MT 14 2.54 Ice 110,000 2022-01-25 05:45:00 FRYM8
06295113 Rosebud C at Reservation Bndry nr Kirby MT   3.65 Bkw 1,720 2022-01-25 05:45:00 RCRM8
06295220 Rosebud C Bel Lame Deer C nr Lame Deer MT   5.15 Ice 1,150 2022-01-25 05:45:00 RCLM8
06306300 Tongue River at State Line nr Decker MT   3.49 Ice 17,500 2022-01-25 05:15:00 DSLM8
06307500 Tongue River at Tongue R Dam nr Decker MT   10.33 88.4 10,800 2022-01-25 05:30:00 DKRM8
06307616 Tongue R at Birney Day School Br nr Birney MT 7 1.58 Ice 7,160 2022-01-25 05:30:00 BNYM8
06307662 Tongue River at Ashland, MT   10.09

 

  2022-01-25 05:45:00  
06307830 Tongue R bl Brandenberg bridge nr Ashland MT   3.67 Ice 8,340 2022-01-25 05:15:00 ASLM8
06308500 Tongue River at Miles City, MT 10 2.86 Ice 15,300 2022-01-25 05:00:00 MICM8
06309000 Yellowstone River at Miles City, MT 14 5.54 Ice 102,000 2022-01-25 05:00:00 MILM8
06324500 Powder River at Moorhead MT   2.44 Ice 100,000 2022-01-25 05:45:00 MHDM8
06326500 Powder River near Locate MT   -0.13 Ice 31,000 2022-01-25 05:00:00 LOCM8
06327500 Yellowstone River at Glendive, MT 53.5 44.59 Ice 125,000 2022-01-25 05:00:00 GLNM8
06329500 Yellowstone River near Sidney MT 19 5.41 Ice 159,000 2022-01-25 05:00:00 SIDM8
12301250 Tobacco River at Eureka, MT   2.73 117 2,220 2022-01-25 04:30:00  
12301933 Kootenai River bl Libby Dam nr Libby MT 27.5 22.68 20,000 54,000 2022-01-25 05:00:00 KBDM8
12302055 Fisher River near Libby MT 7.5 3.39 220 12,000 2022-01-25 05:45:00 FISM8
12304500 Yaak River near Troy MT 8 3.63 334 13,400 2022-01-25 05:45:00 TRYM8
12305000 KOOTENAI RIVER AT LEONIA, ID   16.88 21,100 123,000 2022-01-25 04:15:00 LEOI1
12323233 Blacktail Creek above Grove Gulch, at Butte, MT 8.7 4.80 6.48 77.7 2022-01-25 05:45:00 BKCM8
12323242 Silver Bow Creek at Montana Street, at Butte, MT   6.38 18.0   2022-01-25 05:45:00  
12323250 Silver Bow Cr bl Blacktail Cr, at Butte, MT   1.65 25.7 447 2022-01-25 05:45:00  
12323600 Silver Bow Creek at Opportunity MT   1.94 Ice 1,300 2022-01-25 05:45:00  
12323670 Mill Creek nr Anaconda, MT   2.04 Ice 432 2022-01-25 05:00:00  
12323700 Mill Creek at Opportunity, MT   1.88 Ice 284 2022-01-25 05:30:00  
12323710 Willow Creek nr Anaconda, MT   1.32 2.77 184 2022-01-25 05:00:00  
12323720 Willow Creek at Opportunity, MT   3.81 4.09 211 2022-01-25 05:30:00  
12323750 Silver Bow Creek at Warm Springs MT   1.96 Ice 1,320 2022-01-25 05:15:00  
12323760 Warm Springs Creek near Anaconda MT 4.4 2.05 Ice 930 2022-01-25 05:30:00 ANDM8
12323770 Warm Springs Creek at Warm Springs MT   3.10 Ice 828 2022-01-25 05:45:00  
12323800 Clark Fork near Galen MT   2.03 Ice 1,410 2022-01-25 05:30:00  
12323840 Lost Creek near Anaconda MT   2.64 Ice 144 2022-01-25 05:00:00  
12323850 Lost Creek near Galen, MT   1.95 Ice 164 2022-01-25 05:30:00  
12324200 Clark Fork at Deer Lodge MT 6 2.80 Ice 2,500 2022-01-25 05:30:00 DLGM8
12324400 Clark Fork ab Little Blackfoot R nr Garrison MT   4.62 Ice 2,690 2022-01-25 05:45:00  
12324590 Little Blackfoot River near Garrison MT   1.30 Ice 8,650 2022-01-25 05:30:00  
12324680 Clark Fork at Goldcreek MT   4.62 Ice 12,000 2022-01-25 05:00:00  
12325000 Georgetown Lake near Philipsburg, MT   6427.97

 

  2022-01-25 05:15:00  
12325500 Flint Creek near Southern Cross MT   0.32 Ssn 192 2022-01-25 04:45:00  
12329500 Flint Creek at Maxville MT   1.81 Ice 3,140 2022-01-25 04:45:00  
12330000 Boulder Creek at Maxville MT   1.28 Ice 2,720 2022-01-25 05:30:00  
12331500 Flint Creek near Drummond MT   2.43 Ice 1,880 2022-01-25 05:30:00  
12331800 Clark Fork near Drummond MT 8 2.84 424 9,800 2022-01-25 05:15:00 DRMM8
12332000 Middle Fork Rock Cr nr Philipsburg MT   2.18 Ice 1,680 2022-01-25 05:15:00  
12334510 Rock Creek near Clinton MT 9 4.93 183 6,500 2022-01-25 04:45:00 RCCM8
12334550 Clark Fork at Turah Bridge nr Bonner MT   1.91 785 13,300 2022-01-25 05:30:00  
12335100 Blackfoot R ab Nevada Cr nr Helmville MT   4.24 Ice 4,860 2022-01-25 05:45:00  
12335500 Nevada Cr ab reservoir, nr Helmville, MT   1.87 Ice 1,800 2022-01-25 05:45:00  
12338300 NF Blackfoot R ab Dry Gulch nr Ovando MT   4.23 127 4,700 2022-01-25 05:00:00  
12340000 Blackfoot River near Bonner MT 10 2.55 Ice 19,200 2022-01-25 05:45:00 BONM8
12340500 Clark Fork above Missoula MT 7.5 2.59 1,400 48,000 2022-01-25 05:00:00 ABOM8
12342500 West Fork Bitterroot River nr Conner MT   1.13 62.9 4,060 2022-01-25 05:15:00 WFBM8
12344000 Bitterroot River near Darby MT 7.5 1.36 216 11,500 2022-01-25 05:15:00 DARM8
12350250 Bitterroot River at Bell Crossing nr Victor MT 11 2.50 Ssn 18,700 2022-01-25 02:00:00 VICM8
12352500 Bitterroot River near Missoula MT 11 3.24 852 38,300 2022-01-25 05:45:00 BITM8
12353000 Clark Fork below Missoula MT 11 1.33 2,290 55,100 2022-01-25 05:00:00 BELM8
12354000 St. Regis River near St. Regis, MT 8 2.26 154 29,000 2022-01-25 05:45:00 STRM8
12354500 Clark Fork at St. Regis MT 19 5.55 3,070 68,900 2022-01-25 05:45:00 SRGM8
12355000 Flathead River at Flathead British Columbia 10.5 5.05 Ice 20,900 2022-01-25 05:45:00 NFFQ2
12355342 Hallowat Creek abv Kletomus Creek, near Olney, MT   2.53 5.13   2022-01-25 05:45:00  
12355347 Big Creek below Lookout Creek, near Apgar, MT   1.81 35.2   2022-01-25 05:30:00  
12355500 N F Flathead River nr Columbia Falls MT 13 2.21 Ice 69,100 2022-01-25 05:45:00 FCFM8
12357800 Snyder Creek nr mouth, nr West Glacier, MT 8 2.98

 

  2022-01-25 05:40:00 SNYM8
12358500 M F Flathead River near West Glacier MT 10 1.99 719 140,000 2022-01-25 05:45:00 WGCM8
12359800 S F Flathead R ab Twin C nr Hungry Horse MT   6.72 Ssn 50,900 2022-01-25 05:45:00 TNCM8
12362000 Hungry Horse Reservoir nr Hungry Horse MT   3543.82

 

  2022-01-25 05:45:00  
12362500 S F Flathead River nr Columbia Falls MT   6.43 3,260 46,200 2022-01-25 05:45:00 HHWM8
12363000 Flathead River at Columbia Falls MT 13 4.30 4,960 176,000 2022-01-25 05:45:00 CFMM8
12363500 Flathead River near Kalispell, MT   11.06 4,920   2022-01-25 05:45:00  
12365700 Stillwater River at Lawrence Park, at Kalispell 7.5 4.02 Ice 3,940 2022-01-25 05:45:00 SRLM8
12366000 Whitefish River near Kalispell MT 5 2.08 Ice 1,580 2022-01-25 05:45:00 WHRM8
12366500 Flathead River at Foys Bend nr Kalispell MT   89.30

 

  2022-01-25 05:45:00 FOYM8
12370000 Swan River near Bigfork, MT 6.5 2.41 478 8,890 2022-01-25 05:00:00 SWRM8
12371550 Flathead Lake at Polson MT   2886.35

 

  2022-01-25 05:30:00 KERM8
12372000 Flathead River near Polson MT 18 6.77 10,500 110,000 2022-01-25 05:50:00 FPOM8
12377150 Mission Creek ab reservoir nr St. Ignatius MT   1.80 11.2 915 2022-01-25 05:15:00  
12381400 South Fork Jocko River near Arlee MT   2.81 Ice 1,220 2022-01-25 05:15:00  
12388700 Flathead River at Perma MT   10.15 11,700 54,900 2022-01-25 05:30:00 PERM8
12389000 Clark Fork near Plains MT 16 5.72 15,500 134,000 2022-01-25 05:45:00 PLNM8
12389500 Thompson River near Thompson Falls MT 7 2.88 183 6,190 2022-01-25 05:45:00 THRM8
12390700 Prospect Creek at Thompson Falls MT 7.5 1.30 112 5,490 2022-01-25 05:15:00 PRCM8
480608115242901 Libby Wetland Site bl Schrieber Lake nr Libby, MT   3.43 Bkw 34.0 2022-01-25 05:30:00